IRIDIUM 33 DEB

Satellite information

Favourite Embed

Satellite Type and Status

DEBRISIN ORBIT

Key statistics

Satellite IRIDIUM 33 DEB at a glance.

Uptime

10318

Days in orbit

Revolutions

≈ 15.0

Per day

Orbit

LEO

Low Earth Orbit

Inclination

86.4

Latest

Satellite identification and parameters

Extended collection of information and parameters for IRIDIUM 33 DEB.

Object identification

Identified? True

Debris? True

Object name: IRIDIUM 33 DEB

International designator: 1997-051GB

Object number (NORAD): 34486

Object ID (CCSDS): 34486

Country: UNITED STATES OF AMERICA (US)

Current information (Y/N): Y

RCS size: SMALL

Orbital parameters

Period: 96.272 minutes

Inclination: 86.3941 deg

SMA: 6958.153 km

Apoapsis: 589.481 km

Periapsis: 570.554 km

RAAN: 12.3125 deg

Eccentricy: 0.00136003

Argument of periapsis: 115.3931 deg

Mean anomaly: 301.9535 deg

Mean motion: 14.95759762 rev/day

Mean motion (dot): 0.00031283 rev/day2

B* drag term: 0.0027908817 1/REarth

Two-line elements (TLE)

Creation date: Dec. 12, 2025, 10:14 a.m.

Reference frame: TEME

Reference center: EARTH

Epoch: Dec. 12, 2025, 2:47 a.m. UTC

TLE line 0: 0 IRIDIUM 33 DEB

TLE line 1: 1 34486U 97051GB 25346.11617096 .00031283 00000-0 27909-2 0 9994

TLE line 2: 2 34486 86.3941 12.3125 0013600 115.3931 301.9535 14.95759762889775

Live tracking on map

Real-time ground track for satellite IRIDIUM 33 DEB.

In-orbit conjunctions

A list of the most updated potential collisions computed for object IRIDIUM 33 DEB.

Target Orbit TCA Probability of collision Miss distance Type
COROT SSO 2025-09-27 11:55:09 0.0001166546 217.0 (m) PAYLOAD
H-2A R/B SSO 2025-02-06 10:19:06 0.0001703204 760.0 (m) ROCKET BODY
CZ-4 DEB SSO 2024-11-14 04:10:15 0.001598008 101.0 (m) DEBRIS

Associated space launch

Iridium provides global mobile telecommunications services using a constellation of 66 low earth orbit satellites in a 86.4° inclined orbit. Although 77 satellites were originally envisioned for the system and spawned the name based on the 77th element in the periodic table, the system has been scaled back. Motorola's Satellite Communications Group designed and manufactured the Iridium satellites with Lockheed Martin providing the LM-700A spacecraft buses.

IRIDIUM 33 DEB was lifted into orbit during the mission ‘Proton-K/17S40 | Iridium 27 to 33’, on board a Proton-K/17S40 space rocket.

The launch took place on Sept. 14, 1997, 1:36 a.m. from 81/23 (81L).

For more information about the launch, click the button.

Launch to space Proton-K/17S40 | Iridium 27 to 33
Proton-K/17S40 | Iridium 27 to 33

Agency: N/A

Status: Launch Successful

Launch date: Sept. 14, 1997, 1:36 a.m. UTC

Rocket: Proton-K/17S40

Launch pad: 81/23 (81L)

Location: Baikonur Cosmodrome, Republic of Kazakhstan

...

Latest news about this satellite

There are no fresh news available about this satellite. Check back as we update our databases every day.


Newsletter sign-up

Weekly statistics, charts and insights to help you stay on top of the space industry.